User: anonymous   Login
Location: Pasadena, ca
(34.1243°N, 118.1037°W)
Time: 08:43:27
(UTC-08:00)
Language:

Tiangong 2 - Orbit

View from above orbital plane
View from above orbital plane
View from above satellite
View from above satellite

Ground track
Ground track

The orbit data is extracted from the following two-line orbital elements,

1 41765U 16057A   19017.39081532  .00002981  00000-0  39758-4 0  9997
2 41765  42.7839 145.9025 0008764 299.6379 159.1043 15.60452918133476
Epoch (UTC): 17 January 2019 09:22:46
Eccentricity: 0.0008764
inclination: 42.7839°
perigee height: 380 km
apogee height: 392 km
right ascension of ascending node: 145.9025°
argument of perigee: 299.6379°
revolutions per day: 15.60452918
mean anomaly at epoch: 159.1043°
orbit number at epoch: 13347

The dashed part of the orbit path shows where the satellite is in the earth's shadow,  

DLR